C/2019 U5 ( PanSTARRS )

Japanese version
Home page
Updated on May 4, 2021

---------------------------------------------------------------------

* Profile

Discovery Date October 22, 2019
Magnitude 21.1 mag
Discoverer Pan-STARRS 1 telescope (Haleakala)

* Pictures

* Orbital Elements

Epoch 2023 Apr. 6.0 TT = JDT 2460040.5
T 2023 Mar. 29.81364 TT                                 Rudenko
q   3.6240704            (2000.0)            P               Q
z  -0.0004174      Peri.  181.49517     -0.99908007     +0.00771134
 +/-0.0000020      Node     2.63694     -0.02313603     +0.73133404
e   1.0015127      Incl.  113.52001     -0.03610745     -0.68197585
From 467 observations 2019 Oct. 11-2021 May 2, mean residual 0".4.

* Finding Charts

* Magnitudes Graph

        m1 = 0.0 + 5 log d + 15.0 log r

---------------------------------------------------------------------

The orbital elements are published on M.P.E.C. 2021-J28.
The charts are made with StellaNavigator Ver.10 (AstroArts).
The magnitudes graphs are made with Comet for Windows.

---------------------------------------------------------------------

Copyright(C) Seiichi Yoshida (comet@aerith.net). All rights reserved.